Cloud_Cover
0 0 0 0 0 0 0 0 0 0 0 0 0 0 0 0 0 0 0 0 0 0 0 0 0 0 0 0 2 4 5 22 75 0 4 5 72 100 99 100 84 71 0
0 0 0 0 0 0 0 0 0 0 0 0 0 0 0 0 0 0 0 0 0 0 0 0 0 0 5 5 5 5 5 5 36 55 5 100 100 100 100 100 52 56 54
0 0 0 0 0 0 0 0 0 0 0 0 0 0 0 0 0 0 0 0 0 0 0 0 4 5 5 5 5 5 6 61 15 86 100 98 100 100 100 100 77 54 33
5 0 0 0 0 0 0 0 0 0 0 0 0 0 0 0 0 0 0 0 0 0 2 5 5 5 5 5 5 5 5 5 47 77 77 100 100 100 100 100 99 83 94
5 2 5 5 0 0 0 0 0 0 0 0 0 0 0 0 0 0 0 0 0 5 5 5 5 5 5 5 6 11 71 12 42 97 100 100 100 100 97 94 96 100 60
5 22 5 5 5 0 0 0 0 0 0 0 0 0 0 0 0 4 0 0 5 5 5 5 3 0 0 3 14 21 89 100 100 100 100 100 100 100 100 100 88 36 94
10 62 19 8 5 0 0 0 0 0 0 0 0 0 0 0 2 1 0 2 5 2 0 2 0 3 5 5 5 20 96 88 100 100 100 100 100 100 100 100 23 59 100
47 12 39 38 24 5 0 2 4 0 0 5 5 2 0 0 4 2 4 5 1 0 0 1 5 5 10 18 95 100 86 100 100 100 100 100 100 100 100 97 100 100 100
100 98 78 99 16 5 5 5 5 1 5 5 5 5 5 5 5 5 5 4 0 0 0 5 13 82 100 100 100 100 100 100 100 100 100 100 100 100 100 100 94 82 90
100 100 100 58 5 5 9 5 5 5 5 5 15 14 5 5 5 5 5 5 5 5 0 4 32 99 91 100 100 100 66 100 100 100 100 100 100 100 100 100 100 91 100
100 100 76 100 14 5 5 70 24 25 5 14 80 68 5 22 5 5 75 33 16 66 5 5 27 5 13 34 75 14 94 100 97 100 100 100 100 100 100 100 100 100 90
100 100 100 100 50 5 5 99 18 6 58 53 98 94 18 53 5 5 73 7 29 5 5 7 18 5 5 4 3 32 100 100 99 100 100 100 100 100 100 100 100 100 100
100 100 100 100 99 85 89 69 5 40 99 63 100 100 76 12 5 18 12 5 4 10 5 5 5 0 0 0 0 58 100 100 100 100 100 99 100 100 100 100 100 100 100
100 35 24 84 100 100 100 98 100 100 100 100 100 100 86 44 14 43 32 30 2 5 5 5 5 2 0 0 0 16 95 100 100 100 100 100 100 100 100 100 100 100 100
27 38 56 58 98 100 100 100 100 100 100 100 100 100 100 34 72 9 94 5 17 21 11 20 3 0 0 5 5 5 100 100 100 100 100 100 100 100 100 100 100 100 100
100 61 32 7 88 100 100 100 100 100 100 100 100 100 95 83 100 71 64 8 12 4 5 5 3 0 1 5 13 95 100 100 100 100 100 100 100 100 100 100 100 100 100
81 85 73 100 100 100 100 100 100 100 100 100 100 100 86 100 100 100 56 2 6 3 4 5 5 0 5 5 24 100 100 100 100 100 100 100 100 100 100 100 100 100 100
100 100 100 100 100 100 100 100 100 100 100 100 100 85 98 100 100 66 9 5 0 0 0 5 5 5 5 5 49 97 97 81 100 100 100 100 100 100 100 100 100 100 100
100 100 100 100 100 100 100 100 100 100 100 100 99 96 100 92 93 5 5 5 5 4 5 5 5 5 5 5 98 83 94 84 100 100 100 100 100 100 100 100 100 100 100
100 100 100 100 100 100 100 100 100 100 100 89 80 98 68 100 96 5 5 5 5 5 5 5 5 14 6 25 100 53 95 66 100 100 100 100 100 100 100 100 100 100 100
100 100 100 100 100 100 100 100 100 100 99 84 100 76 100 100 76 55 56 5 5 5 5 5 7 100 86 17 44 30 84 86 100 100 100 100 100 100 100 100 100 100 100
100 100 100 100 100 100 100 100 100 99 84 99 100 100 100 100 77 100 41 5 5 5 5 5 5 85 87 32 57 53 70 100 100 100 100 100 100 100 100 100 100 100 100
100 100 100 100 89 86 99 96 100 100 100 100 100 100 100 55 55 79 5 5 5 5 5 5 25 26 5 5 37 98 92 100 100 100 100 100 100 100 100 100 99 100 100
100 94 100 100 100 100 100 100 100 100 100 100 100 98 43 88 8 34 39 5 5 5 14 20 15 5 5 5 100 100 100 100 100 100 100 100 100 100 100 100 100 100 100
100 100 100 100 100 100 100 100 100 100 100 100 100 88 85 35 67 54 5 5 10 58 6 5 30 6 5 51 100 94 100 100 100 100 100 100 100 100 100 100 100 100 100
100 100 100 100 100 100 100 100 100 100 96 100 100 83 97 100 100 70 8 7 12 80 100 13 16 60 6 71 100 100 100 100 100 100 100 100 100 100 100 100 100 100 100